Probability
39 37 37 37 38 36 33 31 33 39 46 51 48 43 33 21 11 6 4 4 5 5 4 5 6 6 6 5 4 3 3 1 0 0 0 0 0 0 0 0 0 0 0
33 32 30 30 31 31 30 30 33 37 41 43 43 38 32 23 13 7 4 4 5 5 5 5 5 5 4 4 3 3 3 2 1 0 0 0 0 0 0 0 0 0 0
22 21 19 19 21 23 25 27 29 31 33 33 32 31 27 20 11 6 4 3 4 4 4 4 4 4 3 3 3 3 2 2 1 0 0 0 0 0 0 0 0 0 0
12 11 10 11 12 15 20 22 22 23 25 25 23 22 20 13 7 5 4 3 3 3 3 3 3 3 3 2 2 1 1 1 0 0 0 0 0 0 0 0 0 0 0
9 7 7 7 8 11 16 18 16 16 17 18 16 14 12 8 5 6 5 4 3 3 3 3 2 2 1 1 1 0 0 0 0 0 0 0 0 0 0 0 0 0 0
8 7 6 6 7 10 13 13 12 10 11 11 10 9 6 5 5 6 5 3 2 2 2 1 1 1 0 0 0 0 0 0 0 0 0 0 0 0 0 0 0 0 0
7 7 6 6 7 8 8 8 7 6 6 6 6 5 4 4 5 5 3 1 1 0 0 0 0 0 0 0 0 0 0 0 0 0 0 0 0 0 0 0 0 0 0
6 6 6 6 5 4 4 4 4 4 4 4 4 3 3 3 3 2 1 0 0 0 0 0 0 0 0 0 0 0 0 0 0 0 0 0 0 0 0 0 0 0 0
3 3 3 3 4 3 3 3 4 4 3 3 3 2 2 2 1 0 0 0 0 0 0 0 0 0 0 0 0 0 0 0 0 0 0 0 0 0 0 0 0 0 0
1 1 1 1 2 2 2 3 3 3 2 2 1 1 1 1 0 0 0 0 0 0 0 0 0 0 0 0 0 0 0 0 0 0 0 0 0 0 0 0 0 0 0
0 0 0 0 1 1 1 1 1 1 1 1 0 0 0 0 0 0 0 0 0 0 0 0 0 0 0 0 0 0 0 0 0 0 0 0 0 0 0 0 0 0 0
0 0 0 0 0 0 0 0 0 0 0 0 0 0 0 0 0 0 0 0 0 0 0 0 0 0 0 0 0 0 0 0 0 0 0 0 0 0 0 0 0 0 0
0 0 0 0 0 0 0 0 0 0 0 0 0 0 0 0 0 0 0 0 0 0 0 0 0 0 0 0 0 0 0 0 0 0 0 0 0 0 0 0 0 0 0
0 0 0 0 0 0 0 0 0 0 0 0 0 0 0 0 0 0 0 0 0 0 0 0 0 0 0 0 0 0 0 0 0 0 0 0 0 0 0 0 0 0 0
0 0 0 0 0 0 0 0 0 0 0 0 0 0 0 0 0 0 0 0 0 0 0 0 0 0 0 0 0 0 0 0 0 0 0 0 0 0 0 0 0 0 0
0 0 0 0 0 0 0 0 0 0 0 0 0 0 0 0 0 0 0 0 0 0 0 0 0 0 0 0 0 0 0 0 0 0 0 0 0 0 0 0 0 0 0
0 0 0 0 0 0 0 0 0 0 0 0 0 0 0 0 0 0 0 0 0 0 0 0 0 0 0 0 0 0 0 0 0 0 0 0 0 0 0 0 0 0 0
0 0 0 0 0 0 0 0 0 0 0 0 0 0 0 0 0 0 0 0 0 0 0 0 0 0 0 0 0 0 0 0 0 0 0 0 0 0 0 0 0 0 0
0 0 0 0 0 0 0 0 0 0 0 0 0 0 0 0 0 0 0 0 0 0 0 0 0 0 0 0 0 0 0 0 0 0 0 0 0 0 0 0 0 0 0
0 0 0 0 0 0 0 0 0 0 0 0 0 0 0 0 0 0 0 0 0 0 0 0 0 0 0 0 0 0 0 0 0 0 0 0 0 0 0 0 0 0 0
0 0 0 0 0 0 0 0 0 0 0 0 0 0 0 0 0 0 0 0 0 0 0 0 0 0 0 0 0 0 0 0 0 0 0 0 0 0 0 0 0 0 0
0 0 0 0 0 0 0 0 0 0 0 0 0 0 0 0 0 0 0 0 0 0 0 0 0 0 0 0 0 0 0 0 0 0 0 0 0 0 0 0 0 0 0
0 0 0 0 0 0 0 0 0 0 0 0 0 0 0 0 0 0 0 0 0 0 0 0 0 0 0 0 0 0 0 0 0 0 0 0 0 0 0 0 0 0 0
0 0 0 0 0 0 0 0 0 0 0 0 0 0 0 0 0 0 0 0 0 0 0 0 0 0 0 0 0 0 0 0 0 0 0 0 0 0 0 0 0 0 0
0 0 0 0 0 0 0 0 0 0 0 0 0 0 0 0 0 0 0 0 0 0 0 0 0 0 0 0 0 0 0 0 0 0 0 0 0 0 0 0 0 0 0
0 0 0 0 0 0 0 0 0 0 0 0 0 0 0 0 0 0 0 0 0 0 0 0 0 0 0 0 0 0 0 0 0 0 0 0 0 0 0 0 0 0 0
Wind_Speed
9 9 9 9 8 7 5 2 3 4 4 5 5 5 4 4 4 4 6 5 5 5 4 3 4 3 3 2 2 2 3 2 2 2 2 2 4 4 4 3 3 4 3
11 11 10 8 7 7 5 1 0 4 3 3 4 4 5 5 5 5 7 7 7 6 5 5 4 3 3 4 4 2 2 2 3 1 1 1 2 3 4 4 4 4 3
10 10 10 8 6 6 5 3 2 4 4 6 7 7 5 5 5 6 6 8 8 8 7 6 5 5 4 4 4 3 2 2 3 3 2 2 1 1 2 4 4 4 4
10 10 10 9 7 7 6 6 4 6 6 5 7 9 7 6 5 5 6 7 9 9 8 7 7 6 5 5 5 5 3 3 2 3 4 3 2 2 1 2 3 4 4
10 10 10 8 8 8 7 6 7 8 7 7 8 9 9 8 7 6 8 8 8 9 8 8 8 7 6 7 7 7 7 5 4 3 2 3 4 3 2 1 2 3 3
10 10 9 9 9 9 9 9 10 10 9 9 10 11 12 10 10 8 8 7 6 7 9 9 8 8 7 7 7 7 8 7 7 6 5 4 3 2 2 2 1 2 2
10 10 10 11 10 11 10 10 11 11 10 11 11 11 12 11 10 9 8 8 7 6 7 8 7 7 7 7 7 8 8 7 8 7 5 5 4 2 2 2 1 1 2
10 10 10 10 10 10 10 10 10 10 10 11 11 11 11 9 8 9 8 8 7 7 7 7 8 8 8 8 7 7 7 7 7 8 6 5 4 4 3 2 2 2 3
9 10 10 10 10 9 10 9 10 12 11 11 12 12 11 11 11 10 9 7 7 7 8 7 8 8 8 8 7 7 6 6 6 6 6 5 4 4 3 3 2 2 2
9 9 9 10 9 9 10 10 11 12 12 11 10 11 11 11 10 9 9 9 8 7 7 7 8 8 8 7 7 6 6 7 6 5 6 5 4 4 4 3 3 2 2
8 8 8 8 9 9 9 10 11 11 11 11 11 11 11 10 10 9 9 8 7 7 7 7 8 8 8 7 6 6 6 6 6 5 5 5 4 4 4 4 3 3 2
9 8 9 9 9 9 9 9 10 10 10 10 10 10 10 9 9 9 8 7 7 6 6 7 8 8 7 7 7 6 6 5 5 5 5 5 4 5 4 3 4 3 2
10 9 8 9 8 8 8 9 9 9 9 9 9 9 9 8 8 7 6 6 6 6 7 7 7 7 6 6 6 5 5 4 4 3 3 3 4 4 3 3 3 2 3
9 9 8 8 8 7 7 8 8 7 8 8 9 8 7 7 6 6 5 5 6 6 6 6 6 6 6 6 5 5 5 5 4 3 3 2 2 2 2 3 3 3 3
10 9 8 7 7 7 7 7 7 6 7 8 8 6 6 6 6 5 5 5 5 6 5 6 5 5 5 5 5 4 4 4 4 4 3 1 2 2 2 2 2 2 2
10 10 9 8 7 7 6 6 6 5 6 7 7 6 5 6 5 5 5 5 5 5 5 5 5 5 4 6 7 4 3 3 3 3 3 2 3 5 7 8 7 4 2
10 9 9 7 7 6 5 5 5 5 6 6 6 5 5 5 4 5 5 4 4 4 4 4 4 3 3 6 7 8 3 3 3 2 2 2 2 4 4 7 9 8 8
10 8 7 7 6 5 5 4 5 5 5 5 5 4 4 5 4 4 4 3 3 3 3 2 2 2 3 6 8 8 5 4 4 2 1 1 2 3 4 5 6 6 6
9 7 6 6 6 5 5 5 5 5 5 5 4 4 5 4 4 4 3 2 2 2 2 2 2 1 2 5 7 7 4 4 5 4 3 1 2 5 5 4 5 7 6
8 7 6 6 5 4 5 6 6 5 5 4 4 4 4 4 3 2 1 1 2 1 1 1 1 1 1 3 6 6 3 4 4 4 4 5 5 7 6 3 3 6 7
8 8 7 6 4 4 6 6 5 4 3 4 3 3 3 2 2 1 1 1 2 2 1 1 0 0 1 3 6 7 2 2 3 3 4 5 9 10 9 5 3 6 7
8 7 7 5 4 5 6 6 4 2 3 3 3 3 2 1 2 2 2 2 3 3 2 2 2 2 2 4 6 9 7 4 2 3 4 6 11 11 9 5 5 8 5
7 6 7 6 4 4 5 4 2 2 3 3 2 2 2 2 2 3 3 3 3 3 2 2 2 2 2 4 7 8 9 8 3 4 8 10 10 8 6 7 9 6 3
6 6 6 5 4 3 4 3 2 2 2 2 1 1 2 2 3 3 3 3 3 3 2 2 2 1 2 3 4 4 5 7 6 5 8 10 9 7 7 6 6 4 3
5 5 5 5 4 4 3 2 2 2 2 1 0 1 1 2 2 3 2 2 1 2 3 1 1 1 1 3 5 4 4 4 4 5 4 4 4 5 5 5 5 4 5
5 5 5 5 4 3 2 2 2 2 2 1 0 0 1 2 2 2 2 2 1 1 3 3 2 1 3 5 7 8 8 8 4 2 3 3 3 3 4 4 5 4 4
Wind_Direction
67 65 76 78 77 70 70 82 157 165 151 141 140 131 131 110 89 73 68 66 69 76 83 86 74 70 76 70 75 93 74 44 19 72 57 41 54 60 54 50 56 57 60
70 61 59 63 68 78 82 87 18 146 136 136 128 123 117 93 82 71 63 56 59 61 72 68 69 65 66 51 41 58 90 56 34 81 108 53 22 39 41 43 52 47 44
72 65 56 46 53 62 66 74 51 92 105 106 104 103 96 87 75 64 61 49 57 61 64 69 68 60 67 66 49 46 87 96 46 44 96 128 181 20 28 37 43 44 44
62 60 55 42 37 47 56 58 60 77 79 91 113 120 113 105 88 84 78 64 58 61 62 66 68 62 58 58 51 46 51 82 74 46 41 68 99 122 77 14 19 37 40
60 56 49 43 40 41 48 56 59 65 71 81 97 107 104 102 103 95 84 73 61 58 60 61 63 63 62 61 58 53 53 55 63 59 45 46 43 47 93 47 351 10 19
61 55 49 44 44 44 47 53 60 57 59 73 86 99 106 110 110 102 92 79 68 59 56 63 64 63 62 60 60 60 61 60 63 59 54 56 56 39 60 81 17 358 347
60 52 47 46 43 43 47 54 63 61 61 71 79 89 98 102 102 99 95 91 78 67 57 63 65 64 61 60 60 61 59 58 63 61 58 56 53 47 54 75 53 24 345
62 56 49 49 47 47 51 56 65 68 68 72 76 82 87 90 89 88 90 89 87 79 68 65 66 64 62 62 59 61 60 59 60 61 58 56 43 41 46 63 78 48 7
68 64 57 53 51 51 55 59 67 70 70 76 81 79 81 86 91 88 85 85 84 84 74 68 67 63 62 61 63 62 57 58 57 54 52 50 37 37 39 45 63 97 52
75 69 64 61 59 58 59 61 68 73 73 74 79 84 82 84 86 87 85 82 79 77 74 68 66 63 59 56 59 58 53 56 48 53 55 49 38 37 34 39 44 67 114
90 82 75 70 67 64 64 65 68 73 75 76 80 82 82 82 83 84 84 84 81 75 71 69 67 62 56 52 56 54 53 55 48 46 53 48 45 40 29 33 38 43 73
96 90 85 80 74 72 70 71 71 74 77 80 81 82 83 84 84 83 80 79 79 75 74 72 67 62 56 50 51 52 49 51 50 45 46 39 46 38 28 33 30 23 35
101 94 87 84 81 78 78 78 77 80 83 84 86 85 83 83 82 81 80 79 80 77 74 74 71 64 57 49 44 47 44 41 39 39 39 33 44 33 22 27 19 360 4
107 102 94 88 86 83 85 85 82 85 89 88 86 85 84 86 84 81 77 77 81 81 78 76 75 69 59 48 40 41 38 26 17 21 28 33 58 48 16 8 350 344 346
116 110 104 99 93 89 86 87 88 88 93 92 89 87 85 84 81 77 74 73 78 87 87 84 74 62 57 40 37 28 29 20 9 7 8 15 60 50 15 349 325 329 325
126 120 115 109 102 100 100 97 97 96 98 97 97 95 88 84 84 84 80 79 79 82 83 81 75 58 46 30 31 31 22 11 5 354 351 359 38 20 5 352 346 337 305
129 125 121 117 113 109 109 109 108 104 101 102 101 96 93 89 86 89 83 82 83 89 92 92 87 67 23 25 24 25 31 14 357 344 344 354 21 12 348 341 345 339 330
130 125 123 120 116 112 107 107 105 103 100 99 98 97 96 92 86 83 80 78 87 98 108 112 112 79 15 21 24 25 32 25 13 358 339 357 334 333 343 339 338 327 318
127 125 124 123 116 112 110 106 103 100 99 100 102 102 100 95 89 87 81 82 93 98 118 136 141 102 354 9 23 31 22 18 2 355 4 342 303 315 339 343 333 326 318
117 117 113 106 106 106 103 99 96 97 101 105 104 100 100 99 97 102 96 85 107 123 131 132 171 177 310 355 19 30 27 12 352 342 341 332 315 317 327 316 315 316 309
116 113 109 104 105 107 102 99 98 100 107 102 97 92 96 113 115 91 67 73 72 74 67 77 353 295 344 3 15 23 29 354 338 333 325 314 320 323 324 313 261 269 285
116 115 111 105 98 98 102 102 105 110 97 95 91 87 95 102 96 82 57 53 62 60 46 47 22 9 15 24 15 17 18 11 341 316 310 310 320 325 331 331 315 313 318
122 118 118 113 103 103 107 110 123 107 93 88 75 71 77 69 78 92 81 61 58 65 54 63 57 20 14 8 12 9 5 4 351 310 315 325 338 346 347 346 350 351 353
128 126 123 120 122 126 121 135 138 111 97 95 72 70 83 70 69 79 90 90 78 76 67 64 65 30 357 352 349 346 343 347 347 338 333 343 0 12 1 355 356 356 346
131 131 134 139 143 143 147 163 152 122 103 97 61 58 93 115 105 85 83 110 124 153 140 142 141 102 341 313 326 329 325 321 314 327 347 2 0 1 356 351 349 350 356
131 133 140 144 150 155 172 200 195 150 132 118 131 175 141 144 143 124 67 43 142 136 135 160 172 238 256 302 326 335 336 337 343 35 16 354 349 349 346 345 343 345 349